Iron Mountain, MI

2:50 AM CDT on May 01, 2017 (GMT -0500)
Ford

Weather History for KIMT - June, 2013

Change the Weather History Date:

Thursday, June 20, 2013

  Actual Average Record
Temperature  
Mean Temperature 66 °F -  
Max Temperature 81 °F 75 °F 94 °F (1988)
Min Temperature 53 °F 50 °F 34 °F (1968)
Cooling Degree Days 1    
Growing Degree Days 16 (Base 50)    
Moisture  
Dew Point 58 °F    
Average Humidity 71    
Maximum Humidity 94    
Minimum Humidity 47    
Precipitation  
Precipitation 0.05 in - - ()
Sea Level Pressure  
Sea Level Pressure 30.08 in    
Wind  
Wind Speed 3 mph (NNW)    
Max Wind Speed 12 mph    
Max Gust Speed -    
Visibility 10 miles    
Events Rain , Thunderstorm    
Averages and records for this station are not official NWS values.
T = Trace of Precipitation, MM = Missing Value Source: NWS Daily Summary

Daily Weather History Graph

Daily Weather History Graph

Search for Another Location

Airport or City:

Trip Planner

Search our weather history database for the weather conditions in past years. The results will help you decide how hot, cold, wet, or windy it might be!

Date:

Astronomy

Jun. 20, 2013 Rise Set
Actual Time 5:02 AM CDT 8:46 PM CDT
Civil Twilight 4:23 AM CDT 9:24 PM CDT
Nautical Twilight 3:32 AM CDT 10:16 PM CDT
Astronomical Twilight 2:20 AM CDT 11:27 PM CDT
Moon 5:42 PM CDT (6/20) 2:36 AM CDT (6/20)
Length of Visible Light 17h 00m
Length of Day
15h 43m
Waxing Gibbous, 89% of the Moon is Illuminated
Jun 20
Waxing Gibbous
Jun 23
Full
Jun 29
Last Quarter
Jul 8
New
Jul 15
First Quarter

Hourly Weather History & Observations

Time (CDT) Temp. Dew Point Humidity Pressure Visibility Wind Dir Wind Speed Gust Speed Precip Events Conditions
12:54 AM 57.0 °F 48.9 °F 74% 30.06 in 10.0 mi Calm Calm - N/A   Clear
1:54 AM 55.0 °F 48.9 °F 80% 30.06 in 10.0 mi Calm Calm - N/A   Clear
2:54 AM 55.0 °F 48.9 °F 80% 30.07 in 10.0 mi Calm Calm - N/A   Clear
3:54 AM 55.0 °F 50.0 °F 83% 30.06 in 10.0 mi Calm Calm - N/A   Clear
4:54 AM 53.1 °F 48.9 °F 86% 30.08 in 10.0 mi Calm Calm - N/A   Clear
5:54 AM 53.1 °F 48.9 °F 86% 30.09 in 10.0 mi Calm Calm - N/A   Clear
6:54 AM 62.1 °F 53.1 °F 72% 30.08 in 10.0 mi Calm Calm - N/A   Clear
7:54 AM 69.1 °F 54.0 °F 58% 30.09 in 10.0 mi Variable 3.5 mph - N/A   Clear
8:54 AM 75.0 °F 55.0 °F 50% 30.08 in 10.0 mi SW 9.2 mph - N/A   Clear
9:54 AM 75.9 °F 57.0 °F 52% 30.09 in 10.0 mi South 6.9 mph - N/A   Partly Cloudy
10:54 AM 79.0 °F 57.0 °F 47% 30.09 in 10.0 mi SSW 11.5 mph - N/A   Partly Cloudy
11:54 AM 79.0 °F 57.9 °F 48% 30.09 in 10.0 mi Calm Calm - N/A   Mostly Cloudy
12:54 PM 79.0 °F 59.0 °F 50% 30.11 in 10.0 mi WNW 5.8 mph - N/A   Overcast
1:54 PM 79.0 °F 57.9 °F 48% 30.09 in 10.0 mi NNW 6.9 mph - N/A   Overcast
2:54 PM 79.0 °F 59.0 °F 50% 30.10 in 10.0 mi North 9.2 mph - N/A   Mostly Cloudy
3:54 PM 78.1 °F 60.1 °F 54% 30.08 in 10.0 mi Variable 5.8 mph - N/A   Clear
4:54 PM 77.0 °F 61.0 °F 58% 30.06 in 10.0 mi ESE 8.1 mph - N/A   Clear
5:54 PM 73.9 °F 61.0 °F 64% 30.06 in 10.0 mi ESE 5.8 mph - 0.00 in   Scattered Clouds
6:12 PM 73.4 °F 62.6 °F 69% 30.07 in 10.0 mi ESE 3.5 mph - N/A Thunderstorm Scattered Clouds
6:22 PM 73.4 °F 62.6 °F 69% 30.07 in 10.0 mi SE 3.5 mph - N/A Thunderstorm Mostly Cloudy
6:43 PM 71.6 °F 64.4 °F 78% 30.08 in 10.0 mi West 3.5 mph - 0.00 in Rain Light Rain
6:54 PM 71.1 °F 64.9 °F 81% 30.08 in 10.0 mi NW 8.1 mph - 0.00 in Rain Light Rain
7:54 PM 66.9 °F 64.0 °F 90% 30.07 in 10.0 mi ENE 5.8 mph - 0.03 in   Mostly Cloudy
8:54 PM 66.9 °F 64.0 °F 90% 30.08 in 10.0 mi Calm Calm - N/A   Overcast
9:40 PM 66.2 °F 64.4 °F 94% 30.12 in 9.0 mi North 6.9 mph - 0.00 in   Overcast
9:54 PM 66.0 °F 64.0 °F 93% 30.12 in 10.0 mi North 5.8 mph - 0.00 in Rain Light Rain
10:54 PM 66.0 °F 62.1 °F 87% 30.12 in 10.0 mi NW 6.9 mph - 0.00 in Rain Light Rain
11:54 PM 64.9 °F 63.0 °F 93% 30.12 in 10.0 mi Calm Calm - 0.02 in Rain Light Rain